Time,TemperatureF,DewpointF,PressureIn,WindDirection,WindDirectionDegrees,WindSpeedMPH,WindSpeedGustMPH,Humidity,HourlyPrecipIn,Conditions,Clouds,dailyrainin,SoftwareType,DateUTC
2013-10-19 00:13:00,42.0,-99.9,-100.00,WSW,248,3.0,4.0,-999,0.00,,,0.05,,2013-10-19 05:13:00,
2013-10-19 00:23:00,42.0,-99.9,-100.00,WSW,248,3.0,4.0,-999,0.00,,,0.05,,2013-10-19 05:23:00,
2013-10-19 00:43:00,42.0,-99.9,-100.00,SW,236,3.0,5.0,-999,0.00,,,0.05,,2013-10-19 05:43:00,
2013-10-19 00:52:00,42.0,-99.9,-100.00,SW,236,3.0,5.0,-999,0.00,,,0.05,,2013-10-19 05:52:00,
2013-10-19 01:12:00,41.0,-99.9,-100.00,SW,232,4.0,7.0,-999,0.00,,,0.05,,2013-10-19 06:12:00,
2013-10-19 01:22:00,41.0,-99.9,-100.00,SW,232,4.0,7.0,-999,0.00,,,0.05,,2013-10-19 06:22:00,
2013-10-19 01:42:00,41.0,-99.9,-100.00,SW,226,4.0,7.0,-999,0.00,,,0.05,,2013-10-19 06:42:00,
2013-10-19 01:52:00,41.0,-99.9,-100.00,SW,226,4.0,7.0,-999,0.00,,,0.05,,2013-10-19 06:52:00,
2013-10-19 02:11:00,41.0,-99.9,-100.00,WSW,239,2.0,4.0,-999,0.00,,,0.05,,2013-10-19 07:11:00,
2013-10-19 02:22:00,41.0,-99.9,-100.00,WSW,239,2.0,4.0,-999,0.00,,,0.05,,2013-10-19 07:22:00,
2013-10-19 02:42:00,41.0,-99.9,-100.00,SW,229,3.0,6.0,-999,0.00,,,0.05,,2013-10-19 07:42:00,
2013-10-19 02:53:00,41.0,-99.9,-100.00,SW,229,3.0,6.0,-999,0.00,,,0.05,,2013-10-19 07:53:00,
2013-10-19 03:11:00,41.0,-99.9,-100.00,WSW,242,3.0,6.0,-999,0.00,,,0.05,,2013-10-19 08:11:00,
2013-10-19 03:22:00,41.0,-99.9,-100.00,WSW,242,3.0,6.0,-999,0.00,,,0.05,,2013-10-19 08:22:00,
2013-10-19 03:42:00,40.0,-99.9,-100.00,SW,233,3.0,6.0,-999,0.00,,,0.05,,2013-10-19 08:42:00,
2013-10-19 03:52:00,40.0,-99.9,-100.00,SW,233,3.0,6.0,-999,0.00,,,0.05,,2013-10-19 08:52:00,
2013-10-19 04:12:00,40.0,-99.9,-100.00,SW,232,2.0,3.0,-999,0.00,,,0.05,,2013-10-19 09:12:00,
2013-10-19 04:22:00,40.0,-99.9,-100.00,SW,232,2.0,3.0,-999,0.00,,,0.05,,2013-10-19 09:22:00,
2013-10-19 04:43:00,39.0,-99.9,-100.00,SW,226,2.0,5.0,-999,0.00,,,0.05,,2013-10-19 09:43:00,
2013-10-19 04:54:00,39.0,-99.9,-100.00,SW,226,2.0,5.0,-999,0.00,,,0.05,,2013-10-19 09:54:00,
2013-10-19 05:13:00,39.0,-99.9,-100.00,SSW,192,1.0,3.0,-999,0.00,,,0.05,,2013-10-19 10:13:00,
2013-10-19 05:23:00,39.0,-99.9,-100.00,SSW,192,1.0,3.0,-999,0.00,,,0.05,,2013-10-19 10:23:00,
2013-10-19 05:42:00,39.0,-99.9,-100.00,SW,222,1.0,2.0,-999,0.00,,,0.05,,2013-10-19 10:42:00,
2013-10-19 05:53:00,39.0,-99.9,-100.00,SW,222,1.0,2.0,-999,0.00,,,0.05,,2013-10-19 10:53:00,
2013-10-19 06:12:00,38.0,-99.9,-100.00,SW,215,1.0,4.0,-999,0.00,,,0.05,,2013-10-19 11:12:00,
2013-10-19 06:22:00,38.0,-99.9,-100.00,SW,215,1.0,4.0,-999,0.00,,,0.05,,2013-10-19 11:22:00,
2013-10-19 06:42:00,37.0,-99.9,-100.00,SW,235,3.0,6.0,-999,0.00,,,0.05,,2013-10-19 11:42:00,
2013-10-19 06:52:00,37.0,-99.9,-100.00,SW,235,3.0,6.0,-999,0.00,,,0.05,,2013-10-19 11:52:00,
2013-10-19 07:12:00,37.0,-99.9,-100.00,SW,224,3.0,7.0,-999,0.00,,,0.05,,2013-10-19 12:12:00,
2013-10-19 07:22:00,37.0,-99.9,-100.00,SW,224,3.0,7.0,-999,0.00,,,0.05,,2013-10-19 12:22:00,
2013-10-19 07:43:00,37.0,-99.9,-100.00,SW,220,2.0,5.0,-999,0.00,,,0.05,,2013-10-19 12:43:00,
2013-10-19 07:52:00,37.0,-99.9,-100.00,SW,220,2.0,5.0,-999,0.00,,,0.05,,2013-10-19 12:52:00,
2013-10-19 08:12:00,37.0,-99.9,-100.00,SW,223,3.0,5.0,-999,0.00,,,0.05,,2013-10-19 13:12:00,
2013-10-19 08:22:00,37.0,-99.9,-100.00,SW,223,3.0,5.0,-999,0.00,,,0.05,,2013-10-19 13:22:00,
2013-10-19 08:43:00,37.0,-99.9,-100.00,SW,231,3.0,5.0,-999,0.00,,,0.05,,2013-10-19 13:43:00,
2013-10-19 08:52:00,37.0,-99.9,-100.00,SW,231,3.0,5.0,-999,0.00,,,0.05,,2013-10-19 13:52:00,
2013-10-19 09:11:00,38.0,-99.9,-100.00,SW,214,2.0,3.0,-999,0.00,,,0.05,,2013-10-19 14:11:00,
2013-10-19 09:22:00,38.0,-99.9,-100.00,SW,214,2.0,3.0,-999,0.00,,,0.05,,2013-10-19 14:22:00,
2013-10-19 09:42:00,40.0,-99.9,-100.00,SW,228,2.0,6.0,-999,0.00,,,0.05,,2013-10-19 14:42:00,
2013-10-19 09:53:00,40.0,-99.9,-100.00,SW,228,2.0,6.0,-999,0.00,,,0.05,,2013-10-19 14:53:00,
2013-10-19 10:11:00,40.0,-99.9,-100.00,SW,227,5.0,9.0,-999,0.00,,,0.05,,2013-10-19 15:11:00,
2013-10-19 10:22:00,40.0,-99.9,-100.00,SW,227,5.0,9.0,-999,0.00,,,0.05,,2013-10-19 15:22:00,
2013-10-19 10:44:00,40.0,-99.9,-100.00,SW,220,6.0,11.0,-999,0.00,,,0.05,,2013-10-19 15:44:00,
2013-10-19 10:55:00,40.0,-99.9,-100.00,SW,220,6.0,11.0,-999,0.00,,,0.05,,2013-10-19 15:55:00,
2013-10-19 11:14:00,42.0,-99.9,-100.00,SW,222,6.0,13.0,-999,0.00,,,0.05,,2013-10-19 16:14:00,
2013-10-19 11:24:00,42.0,-99.9,-100.00,SW,222,6.0,13.0,-999,0.00,,,0.05,,2013-10-19 16:24:00,
2013-10-19 11:43:00,44.0,-99.9,-100.00,SW,218,5.0,9.0,-999,0.00,,,0.05,,2013-10-19 16:43:00,
2013-10-19 11:54:00,44.0,-99.9,-100.00,SW,218,5.0,9.0,-999,0.00,,,0.05,,2013-10-19 16:54:00,
2013-10-19 12:13:00,45.0,-99.9,-100.00,SW,222,5.0,9.0,-999,0.00,,,0.05,,2013-10-19 17:13:00,
2013-10-19 12:22:00,45.0,-99.9,-100.00,SW,222,5.0,9.0,-999,0.00,,,0.05,,2013-10-19 17:22:00,
2013-10-19 12:43:00,47.0,-99.9,-100.00,SSW,210,5.0,10.0,-999,0.00,,,0.05,,2013-10-19 17:43:00,
2013-10-19 12:52:00,47.0,-99.9,-100.00,SSW,210,5.0,10.0,-999,0.00,,,0.05,,2013-10-19 17:52:00,
2013-10-19 13:13:00,49.0,-99.9,-100.00,SSW,199,5.0,10.0,-999,0.00,,,0.05,,2013-10-19 18:13:00,
2013-10-19 13:22:00,49.0,-99.9,-100.00,SSW,199,5.0,10.0,-999,0.00,,,0.05,,2013-10-19 18:22:00,
2013-10-19 13:42:00,51.0,-99.9,-100.00,SSW,199,5.0,9.0,-999,0.00,,,0.05,,2013-10-19 18:42:00,
2013-10-19 13:52:00,51.0,-99.9,-100.00,SSW,199,5.0,9.0,-999,0.00,,,0.05,,2013-10-19 18:52:00,
2013-10-19 14:12:00,53.0,-99.9,-100.00,SW,236,5.0,9.0,-999,0.00,,,0.05,,2013-10-19 19:12:00,
2013-10-19 14:22:00,53.0,-99.9,-100.00,SW,236,5.0,9.0,-999,0.00,,,0.05,,2013-10-19 19:22:00,
2013-10-19 14:42:00,55.0,-99.9,-100.00,SW,217,5.0,7.0,-999,0.00,,,0.05,,2013-10-19 19:42:00,
2013-10-19 14:52:00,55.0,-99.9,-100.00,SW,217,5.0,7.0,-999,0.00,,,0.05,,2013-10-19 19:52:00,
2013-10-19 15:12:00,55.0,-99.9,-100.00,SW,230,5.0,11.0,-999,0.00,,,0.05,,2013-10-19 20:12:00,
2013-10-19 15:22:00,55.0,-99.9,-100.00,SW,230,5.0,11.0,-999,0.00,,,0.05,,2013-10-19 20:22:00,
2013-10-19 15:42:00,56.0,-99.9,-100.00,SSW,201,4.0,8.0,-999,0.00,,,0.05,,2013-10-19 20:42:00,
2013-10-19 15:52:00,56.0,-99.9,-100.00,SSW,201,4.0,8.0,-999,0.00,,,0.05,,2013-10-19 20:52:00,
2013-10-19 16:11:00,57.0,-99.9,-100.00,SW,223,6.0,12.0,-999,0.00,,,-99.99,,2013-10-19 21:11:00,
2013-10-19 16:22:00,57.0,-99.9,-100.00,SW,223,6.0,12.0,-999,0.00,,,-99.99,,2013-10-19 21:22:00,
2013-10-19 16:44:00,57.0,-99.9,-100.00,SW,231,5.0,9.0,-999,0.00,,,0.05,,2013-10-19 21:44:00,
2013-10-19 17:14:00,57.0,-99.9,-100.00,SW,227,6.0,13.0,-999,0.00,,,0.05,,2013-10-19 22:14:00,
2013-10-19 17:24:00,57.0,-99.9,-100.00,SW,227,6.0,13.0,-999,0.00,,,0.05,,2013-10-19 22:24:00,
2013-10-19 17:43:00,57.0,-99.9,-100.00,SW,231,4.0,9.0,-999,0.01,,,0.05,,2013-10-19 22:43:00,
2013-10-19 17:53:00,57.0,-99.9,-100.00,SW,231,4.0,9.0,-999,0.01,,,0.05,,2013-10-19 22:53:00,
2013-10-19 18:12:00,57.0,-99.9,-100.00,SW,217,5.0,11.0,-999,0.01,,,0.03,,2013-10-19 23:12:00,
2013-10-19 18:23:00,57.0,-99.9,-100.00,SW,217,5.0,11.0,-999,0.01,,,0.03,,2013-10-19 23:23:00,
2013-10-19 18:42:00,56.0,-99.9,-100.00,SSW,212,1.0,3.0,-999,0.00,,,0.02,,2013-10-19 23:42:00,
2013-10-19 18:53:00,56.0,-99.9,-100.00,SSW,212,1.0,3.0,-999,0.00,,,0.02,,2013-10-19 23:53:00,
2013-10-19 19:11:00,55.0,-99.9,-100.00,SSW,195,3.0,5.0,-999,0.00,,,0.01,,2013-10-20 00:11:00,
2013-10-19 19:23:00,55.0,-99.9,-100.00,SSW,195,3.0,5.0,-999,0.00,,,0.01,,2013-10-20 00:23:00,
2013-10-19 19:42:00,54.0,-99.9,-100.00,South,181,3.0,5.0,-999,0.00,,,0.01,,2013-10-20 00:42:00,
2013-10-19 20:12:00,53.0,-99.9,-100.00,South,181,3.0,7.0,-999,0.00,,,0.01,,2013-10-20 01:12:00,
2013-10-19 20:22:00,53.0,-99.9,-100.00,South,181,3.0,7.0,-999,0.00,,,0.01,,2013-10-20 01:22:00,
2013-10-19 20:42:00,53.0,-99.9,-100.00,South,185,5.0,8.0,-999,0.00,,,0.01,,2013-10-20 01:42:00,
2013-10-19 20:53:00,53.0,-99.9,-100.00,South,185,5.0,8.0,-999,0.00,,,0.01,,2013-10-20 01:53:00,
2013-10-19 21:12:00,52.0,-99.9,-100.00,South,181,5.0,8.0,-999,0.00,,,0.01,,2013-10-20 02:12:00,
2013-10-19 21:22:00,52.0,-99.9,-100.00,South,181,5.0,8.0,-999,0.00,,,0.01,,2013-10-20 02:22:00,
2013-10-19 21:42:00,52.0,-99.9,-100.00,South,180,3.0,7.0,-999,0.00,,,0.01,,2013-10-20 02:42:00,
2013-10-19 21:52:00,52.0,-99.9,-100.00,South,180,3.0,7.0,-999,0.00,,,0.01,,2013-10-20 02:52:00,
2013-10-19 22:12:00,52.0,-99.9,-100.00,SSW,194,4.0,5.0,-999,0.00,,,0.01,,2013-10-20 03:12:00,
2013-10-19 22:22:00,52.0,-99.9,-100.00,SSW,194,4.0,5.0,-999,0.00,,,0.01,,2013-10-20 03:22:00,
2013-10-19 22:44:00,52.0,-99.9,-100.00,SSW,200,3.0,5.0,-999,0.00,,,0.01,,2013-10-20 03:44:00,
2013-10-19 22:55:00,52.0,-99.9,-100.00,SSW,200,3.0,5.0,-999,0.00,,,0.01,,2013-10-20 03:55:00,
2013-10-19 23:03:00,-999.0,-99.9,-100.00,SW,219,2.0,4.0,-999,-99.99,,,-99.99,,2013-10-20 04:03:00,
2013-10-19 23:14:00,51.0,-99.9,-100.00,SW,219,2.0,4.0,-999,0.00,,,0.01,,2013-10-20 04:14:00,
2013-10-19 23:24:00,51.0,-99.9,-100.00,SW,219,2.0,4.0,-999,0.00,,,0.01,,2013-10-20 04:24:00,
2013-10-19 23:44:00,50.0,-99.9,-100.00,SSW,203,1.0,3.0,-999,0.00,,,0.01,,2013-10-20 04:44:00,